Location: Hardenberg
(52.5670°N, 6.6170°E)
Time: 20:53:50
(UTC+02:00)

ISS - Pass Details

Date: 21 May 2021
Orbit: 417 x 422 km, 51.6° (Epoch: 12 June)

Event Time Altitude Azimuth Distance (km) Brightness Sun altitude
Rises 00:30:43 0° 277° (W) 2,369 0.4 -16.1°
Reaches altitude 10° 00:32:49 10° 274° (W) 1,505 -0.7 -16.2°
Maximum altitude 00:36:10 61° 194° (SSW) 482 -3.8 -16.3°
Enters shadow 00:37:16 37° 129° (SE) 673 -3.1 -16.3°
